Regional Weather Roundup
Issued by NWS

Home | Current Version | Previous Version | Graphics & Text | Print | Product List | Glossary On
Versions: 1 2 3 4 5 6 7 8 9 10 11 12 13 14 15 16 17 18 19 20 21 22 23 24 25 26 27 28 29 30 31 32 33 34 35 36 37 38 39 40 41 42 43 44 45 46 47 48 49 50
000
ASUS45 KABQ 192110
RWRNM
NEW MEXICO REGIONAL WEATHER ROUNDUP
NATIONAL WEATHER SERVICE ALBUQUERQUE NM
200 PM MST THU JAN 19 2017

NOTE: "FAIR" MEANS FEW OR NO CLOUDS BELOW 12,000 FEET AGL WITH NO
       SIGNIFICANT WEATHER OR OBSTRUCTIONS TO VISION.

      THIS PRODUCT IS RELEASED AS TWO VERSIONS.  ONE VERSION NEAR
      THE TOP OF THE HOUR CONTAINING PRELIMINARY DATA FROM ALBUQUERQUE
      AND OTHER STATIONS.  A FINAL VERSION WITH ADDITIONAL DATA IS
      ISSUED ABOUT 10 MINUTES AFTER THE HOUR.

NMZ501-503-504-510>518-192200-
NORTHWEST PLATEAU/NORTHCENTRAL MOUNTAINS

CITY           SKY/WX    TMP DP  RH WIND       PRES   REMARKS
FARMINGTON     CLOUDY    41  28  60 W6        29.80F
LOS ALAMOS     FAIR      37  26  64 CALM      29.79F
SANTA FE       FAIR      44  27  51 NW10      29.77F
TAOS           FAIR      37  19  48 W9        29.77F WCI  31
ANGEL FIRE     FAIR      33  19  56 NW5       29.73F WCI  28

$$
NMZ402-403-502-505>509-192200-
WESTCENTRAL MOUNTAINS/SOUTHWEST MOUNTAINS

CITY           SKY/WX    TMP DP  RH WIND       PRES   REMARKS
GALLUP         LGT SNOW  33  30  88 SW13      29.86F FOG     WCI  24
GRANTS         CLOUDY    40  27  59 W9G21     29.83F WCI  35
SILVER CITY    CLOUDY    45  32  59 W20       29.91F

$$
NMZ407-409-411-412-192200-
SOUTHERN DESERTS

CITY           SKY/WX    TMP DP  RH WIND       PRES   REMARKS
DEMING         FAIR      51  33  50 W21G28    29.90F
LAS CRUCES     FAIR      51  31  47 W20G26    29.89F
HOLLOMAN AFB   FAIR      55  34  45 SE7       29.86F
ALAMOGORDO     FAIR      54  28  37 CALM      29.85F
T OR C         FAIR      50  27  40 SW8       29.82F

$$
NMZ519>523-192200-
CENTRAL VALLEYS/CENTRAL HIGHLANDS

CITY           SKY/WX    TMP DP  RH WIND       PRES   REMARKS
ALBUQUERQUE    PTSUNNY   47  28  47 CALM      29.80F
DOUBLE EAGLE   PTSUNNY   46  27  46 W9        29.81F
MORIARTY ARPT  FAIR      45  25  44 NW13G18   29.79S
CLINES CORNERS FAIR      39  23  52 W39G48    29.71F WCI  26
BELEN          PTSUNNY   50  25  37 W6        29.80F
SOCORRO        FAIR      53  26  35 S6        29.81F

$$
NMZ524>526-539-540-192200-
SOUTHCENTRAL MOUNTAINS

CITY           SKY/WX    TMP DP  RH WIND       PRES   REMARKS
RUIDOSO        FAIR      46  18  31 NW18G31   29.81S

$$
NMZ527>531-192200-
NORTHEAST HIGHLANDS/NORTHEAST PLAINS

CITY           SKY/WX    TMP DP  RH WIND       PRES   REMARKS
LAS VEGAS      FAIR      45  17  32 E5        29.63S
RATON          FAIR      50  22  33 S7        29.58F
CLAYTON        FAIR      61  20  20 NW13G21   29.55S

$$
NMZ532>537-192200-
EASTCENTRAL PLAINS

CITY           SKY/WX    TMP DP  RH WIND       PRES   REMARKS
TUCUMCARI      FAIR      66  21  18 W8        29.54F
CANNON AFB     FAIR      60  28  29 W18       29.59F
CLOVIS AIRPORT FAIR      61  28  29 W20G26    29.59S

$$
NMZ028-029-538-192200-
SOUTHEAST PLAINS

CITY           SKY/WX    TMP DP  RH WIND       PRES   REMARKS
ROSWELL        FAIR      62  24  23 NW13      29.69F
ARTESIA        FAIR      63  28  27 W18G26    29.71S
CARLSBAD       FAIR      59  28  30 W30       29.72F
HOBBS          SUNNY     59  27  29 SW28G35   29.68F


$$



USA.gov is the U.S. government's official web portal to all federal, state and local government web resources and services.